This is the latest recevied weather packets stored in our database for station/object N3AVN. If no packets are shown the sender has not sent any weather packets the latest 10 day(s).
| Time | Temp. | Humidity | Pressure | Rain* | Wind** | Luminosity | Snow |
|---|---|---|---|---|---|---|---|
| 1777509565 | 13.33° C | 71% | 1009.1 hPa | 0 mm | - | 0 W/m² | - |
| 1777509262 | 13.33° C | 70% | 1008.9 hPa | 0 mm | - | 0 W/m² | - |
| 1777508959 | 13.33° C | 70% | 1008.9 hPa | 0 mm | - | 0 W/m² | - |
| 1777508656 | 13.33° C | 69% | 1009 hPa | 0 mm | - | 0 W/m² | - |
| 1777508354 | 13.33° C | 68% | 1009 hPa | 0 mm | - | 0 W/m² | - |
| 1777508051 | 13.89° C | 67% | 1009 hPa | 0 mm | - | 0 W/m² | - |
| 1777507747 | 13.89° C | 67% | 1009.3 hPa | 0 mm | - | 0 W/m² | - |
| 1777507444 | 13.89° C | 67% | 1009 hPa | 0 mm | - | 0 W/m² | - |
| 1777507141 | 13.89° C | 67% | 1009.1 hPa | 0 mm | - | 0 W/m² | - |
| 1777506839 | 14.44° C | 65% | 1008.9 hPa | 0 mm | - | 0 W/m² | - |
| 1777506530 | 14.44° C | 64% | 1008.9 hPa | 0 mm | - | 0 W/m² | - |
| 1777506230 | 14.44° C | 63% | 1009 hPa | 0 mm | - | 0 W/m² | - |
| 1777505922 | 15° C | 62% | 1009.1 hPa | 0 mm | - | 0 W/m² | - |
| 1777505618 | 15° C | 62% | 1009 hPa | 0 mm | - | 2 W/m² | - |
| 1777505315 | 15° C | 61% | 1008.9 hPa | 0 mm | - | 5 W/m² | - |
| 1777505011 | 15.56° C | 61% | 1008.8 hPa | 0 mm | - | 9 W/m² | - |
| 1777504708 | 15.56° C | 60% | 1008.9 hPa | 0 mm | - | 12 W/m² | - |
| 1777504405 | 15.56° C | 60% | 1008.7 hPa | 0 mm | - | 17 W/m² | - |
| 1777504100 | 15.56° C | 59% | 1008.8 hPa | 0 mm | - | 21 W/m² | - |
| 1777503791 | 15.56° C | 59% | 1008.7 hPa | 0 mm | - | 28 W/m² | - |
| 1777503487 | 15.56° C | 58% | 1009.1 hPa | 0 mm | - | 40 W/m² | - |
| 1777503184 | 16.11° C | 59% | 1009 hPa | 0 mm | - | 55 W/m² | - |
| 1777502881 | 16.11° C | 58% | 1009.2 hPa | 0 mm | - | 56 W/m² | - |
| 1777502578 | 16.11° C | 58% | 1009.1 hPa | 0 mm | - | 50 W/m² | - |
| 1777502275 | 16.11° C | 58% | 1009 hPa | 0 mm | - | 48 W/m² | - |
* Rain latest hour (hover to see other rain measurements)
** Current wind speed in m/s (hover to see current wind gust speed)